ATLAS 5 CENTAUR DEB, 44670

Orbit data source: Space-Track

ATLAS 5 CENTAUR DEB, 44670 is space debris in HEO originally from a launch on Wed, 17 Oct 2018 UTC launched from the Air Force Eastern Test Range (AFETR). Debris objects in space refer to the collection of defunct objects orbiting the Earth. Examples of debris include non-operational satellites, rocket bodies, and fragments generated from explosions, collisions, or faulty payload assembly.

Not visible in the next 10 days
Identifier
44670, 2018-079AG
Orbit
HEO
Country
Flag of USUS
Related business
Flag of USUnited Launch Alliance/Lockheed Martin (US)
Manufacturer
ULA Decatur
Mission
Spacecraft
Bus & Motor
Unknown
Mass
Unknown
Launch date (UTC)
2018-10-17 (8 years ago)
Launch vehicle
Unknown
Launch site
Air Force Eastern Test Range (AFETR)
Object type
Payload
Rocket body
Debris
Shape & HBR
Unknown shape, 1.1 m
Radar Cross Section
Large (>1 m²)

Expand to show TLE details & history
Last TLE update: 1 day ago

TLE from 1 day ago
0 ATLAS 5 CENTAUR DEB
1 44670U 18079AG  26127.48608823 -.00000118  00000-0  00000+0 0  9993
2 44670  13.2451  38.5927 4642989 309.7831  17.7955  1.82912808 46313
Epoch: 2026-05-07T11:39Z
TLE epoch observation values (Epoch: 2026-05-07T11:39:58.023Z)
Latitude
-0°
Longitude
-1.78486°
Altitude
10,705.77 km
Speed
5.705 km/s
True Right ascension
02h 34m 09s
True Declination
0° 00' 00"
Sunlit
Object was in daylight at epoch
Visualization orbit readout
Latitude
Unknown
Longitude
Unknown
Altitude
Unknown
Speed
Unknown
Apparent Right ascension
Unknown
Apparent Declination
Unknown
Sunlit
N/A
Visualization observer readout
Local Sidereal Time
22:54:23
Azimuth
Unknown
Elevation
Unknown
Doppler factor
Unknown
Orbital elements
Apogee altitude
34,980.628 km
Perigee altitude
8,752.61 km
Semi-major axis
28,244.756 km
Eccentricity
0.4643
Inclination
13.2451°
RAAN
38.5927°
Arg. of periapsis
309.7831°
True anomaly
50.47011°
Mean anomaly
17.7955°
Eccentric anomaly
31.82275°
Mean motion
0.45723 °/min
Orbital period
787.35 mins
BSTAR
0
Loading maneuver chart data...
Computing Atmospheric mass density...

Documentation

Showing up to 5 results
|